QPF
0.00 0.00 0.00 0.00 0.00 0.00 0.00 0.00 0.00 0.00 0.00 0.01 0.01 0.01 0.01 0.01 0.02 0.02 0.02 0.02 0.03 0.01 0.01 0.01 0.00 0.00 0.00 0.00 0.00 0.01 0.01 0.01 0.01 0.02 0.05 0.06 0.09 0.13 0.13 0.12 0.10 0.09 0.09 0.07
0.00 0.00 0.00 0.00 0.00 0.00 0.00 0.00 0.00 0.01 0.01 0.01 0.01 0.01 0.01 0.01 0.01 0.02 0.03 0.03 0.04 0.02 0.01 0.01 0.00 0.00 0.00 0.00 0.00 0.00 0.00 0.00 0.00 0.00 0.01 0.02 0.05 0.08 0.10 0.11 0.10 0.10 0.11 0.09
0.00 0.00 0.00 0.00 0.00 0.00 0.00 0.00 0.00 0.01 0.01 0.01 0.01 0.01 0.00 0.00 0.01 0.02 0.04 0.04 0.05 0.04 0.02 0.01 0.00 0.00 0.00 0.00 0.00 0.00 0.01 0.01 0.00 0.00 0.00 0.01 0.03 0.07 0.08 0.08 0.10 0.10 0.07 0.05
0.00 0.00 0.00 0.00 0.00 0.00 0.00 0.00 0.00 0.00 0.00 0.01 0.01 0.01 0.01 0.01 0.02 0.02 0.02 0.03 0.03 0.03 0.02 0.01 0.01 0.00 0.00 0.00 0.01 0.01 0.01 0.00 0.00 0.00 0.00 0.01 0.02 0.03 0.03 0.03 0.04 0.04 0.03 0.03
0.00 0.00 0.00 0.00 0.00 0.00 0.00 0.00 0.00 0.00 0.00 0.00 0.00 0.01 0.02 0.02 0.02 0.01 0.02 0.02 0.03 0.03 0.01 0.01 0.00 0.00 0.00 0.01 0.01 0.01 0.01 0.00 0.00 0.01 0.01 0.01 0.01 0.01 0.02 0.02 0.02 0.02 0.02 0.02
0.00 0.00 0.00 0.00 0.00 0.00 0.00 0.00 0.01 0.01 0.01 0.00 0.00 0.01 0.01 0.01 0.01 0.01 0.01 0.01 0.02 0.03 0.02 0.01 0.01 0.01 0.01 0.02 0.01 0.01 0.01 0.01 0.01 0.01 0.01 0.01 0.01 0.01 0.02 0.03 0.03 0.02 0.02 0.02
0.00 0.00 0.00 0.00 0.00 0.00 0.00 0.00 0.00 0.00 0.00 0.01 0.01 0.01 0.01 0.00 0.00 0.01 0.01 0.01 0.01 0.02 0.02 0.02 0.01 0.01 0.01 0.02 0.02 0.02 0.02 0.01 0.01 0.01 0.01 0.01 0.01 0.01 0.02 0.02 0.03 0.04 0.06 0.04
0.00 0.00 0.00 0.00 0.00 0.00 0.00 0.00 0.00 0.00 0.00 0.01 0.01 0.01 0.01 0.01 0.01 0.01 0.01 0.01 0.01 0.02 0.02 0.02 0.01 0.00 0.01 0.01 0.01 0.02 0.01 0.01 0.01 0.02 0.02 0.02 0.02 0.02 0.02 0.02 0.02 0.03 0.06 0.08
0.00 0.00 0.00 0.00 0.00 0.00 0.00 0.00 0.00 0.00 0.01 0.01 0.01 0.01 0.01 0.01 0.02 0.02 0.02 0.02 0.02 0.04 0.03 0.02 0.01 0.00 0.00 0.00 0.01 0.01 0.01 0.02 0.02 0.02 0.01 0.02 0.01 0.02 0.02 0.03 0.04 0.05 0.07 0.09
0.01 0.01 0.01 0.01 0.01 0.01 0.00 0.00 0.00 0.01 0.01 0.01 0.01 0.01 0.01 0.01 0.02 0.02 0.03 0.03 0.03 0.04 0.04 0.03 0.01 0.01 0.00 0.01 0.01 0.01 0.01 0.02 0.03 0.03 0.02 0.02 0.02 0.02 0.02 0.03 0.04 0.07 0.08 0.08
0.02 0.02 0.02 0.02 0.01 0.01 0.00 0.00 0.01 0.01 0.01 0.01 0.01 0.01 0.01 0.01 0.02 0.02 0.02 0.03 0.04 0.04 0.05 0.04 0.02 0.01 0.01 0.01 0.01 0.01 0.02 0.03 0.03 0.03 0.02 0.02 0.02 0.02 0.02 0.02 0.02 0.05 0.06 0.05
0.04 0.03 0.03 0.03 0.01 0.01 0.01 0.01 0.01 0.01 0.01 0.01 0.02 0.02 0.01 0.02 0.02 0.02 0.03 0.04 0.04 0.05 0.06 0.05 0.03 0.03 0.02 0.02 0.02 0.03 0.03 0.03 0.04 0.04 0.03 0.02 0.02 0.02 0.02 0.01 0.01 0.02 0.04 0.04
0.05 0.05 0.04 0.03 0.02 0.01 0.02 0.02 0.02 0.02 0.02 0.02 0.02 0.02 0.01 0.02 0.03 0.04 0.05 0.06 0.06 0.06 0.07 0.05 0.04 0.03 0.03 0.04 0.03 0.03 0.03 0.04 0.04 0.04 0.03 0.02 0.02 0.02 0.02 0.02 0.02 0.02 0.03 0.03
0.03 0.03 0.02 0.02 0.02 0.02 0.02 0.02 0.01 0.01 0.01 0.02 0.02 0.01 0.01 0.01 0.02 0.04 0.06 0.11 0.09 0.08 0.08 0.06 0.05 0.04 0.04 0.04 0.04 0.03 0.03 0.03 0.03 0.03 0.03 0.02 0.02 0.02 0.02 0.02 0.02 0.02 0.02 0.02
0.03 0.01 0.01 0.01 0.01 0.01 0.02 0.02 0.01 0.01 0.01 0.02 0.02 0.02 0.02 0.01 0.01 0.04 0.05 0.08 0.08 0.08 0.07 0.06 0.05 0.04 0.04 0.03 0.03 0.03 0.03 0.03 0.03 0.03 0.03 0.03 0.02 0.02 0.02 0.02 0.01 0.01 0.01 0.02
0.02 0.01 0.01 0.01 0.01 0.01 0.01 0.01 0.01 0.01 0.01 0.02 0.02 0.01 0.02 0.02 0.02 0.03 0.04 0.04 0.05 0.05 0.04 0.04 0.03 0.03 0.03 0.03 0.03 0.03 0.02 0.03 0.03 0.03 0.02 0.02 0.02 0.01 0.02 0.01 0.01 0.01 0.01 0.01
0.02 0.01 0.01 0.01 0.01 0.01 0.01 0.00 0.01 0.01 0.02 0.01 0.01 0.01 0.01 0.01 0.01 0.02 0.03 0.04 0.03 0.03 0.03 0.03 0.03 0.02 0.02 0.02 0.02 0.02 0.03 0.03 0.03 0.02 0.02 0.02 0.02 0.02 0.01 0.01 0.01 0.01 0.01 0.00
0.03 0.03 0.02 0.01 0.01 0.01 0.01 0.01 0.01 0.01 0.01 0.01 0.01 0.01 0.01 0.01 0.01 0.02 0.03 0.04 0.04 0.03 0.03 0.02 0.02 0.02 0.02 0.02 0.02 0.02 0.02 0.02 0.02 0.02 0.02 0.02 0.02 0.02 0.02 0.02 0.01 0.01 0.01 0.01
0.04 0.03 0.02 0.02 0.02 0.02 0.02 0.01 0.01 0.01 0.01 0.01 0.01 0.01 0.01 0.01 0.02 0.03 0.04 0.06 0.05 0.03 0.03 0.03 0.02 0.02 0.02 0.03 0.03 0.03 0.02 0.02 0.02 0.02 0.02 0.02 0.02 0.02 0.03 0.03 0.02 0.02 0.02 0.01
0.05 0.03 0.02 0.02 0.02 0.02 0.03 0.02 0.02 0.02 0.02 0.02 0.02 0.03 0.03 0.03 0.03 0.03 0.05 0.07 0.06 0.04 0.03 0.03 0.02 0.02 0.02 0.03 0.03 0.03 0.02 0.02 0.02 0.02 0.02 0.03 0.03 0.04 0.03 0.03 0.03 0.03 0.02 0.02
0.05 0.03 0.02 0.01 0.02 0.03 0.04 0.04 0.03 0.02 0.02 0.02 0.03 0.05 0.05 0.05 0.04 0.04 0.07 0.08 0.06 0.04 0.03 0.03 0.02 0.02 0.03 0.03 0.03 0.03 0.03 0.02 0.02 0.02 0.03 0.04 0.05 0.04 0.04 0.03 0.03 0.03 0.03 0.02
0.06 0.03 0.02 0.01 0.02 0.02 0.04 0.05 0.03 0.02 0.03 0.03 0.03 0.04 0.05 0.07 0.06 0.06 0.08 0.08 0.07 0.05 0.03 0.03 0.02 0.03 0.02 0.03 0.03 0.04 0.04 0.04 0.04 0.03 0.03 0.03 0.03 0.05 0.06 0.05 0.04 0.03 0.03 0.02
0.07 0.06 0.04 0.03 0.02 0.02 0.03 0.05 0.04 0.04 0.05 0.04 0.04 0.05 0.05 0.07 0.05 0.06 0.08 0.09 0.08 0.05 0.03 0.02 0.02 0.02 0.02 0.03 0.04 0.04 0.05 0.05 0.04 0.03 0.02 0.02 0.02 0.02 0.02 0.03 0.04 0.03 0.03 0.02
0.09 0.09 0.07 0.05 0.03 0.03 0.03 0.04 0.05 0.06 0.05 0.04 0.05 0.06 0.06 0.07 0.06 0.05 0.06 0.08 0.09 0.05 0.03 0.02 0.02 0.02 0.02 0.03 0.04 0.04 0.05 0.05 0.03 0.02 0.01 0.02 0.02 0.02 0.02 0.02 0.02 0.02 0.02 0.01
0.11 0.11 0.09 0.07 0.05 0.04 0.04 0.05 0.04 0.04 0.05 0.07 0.07 0.07 0.07 0.08 0.09 0.07 0.06 0.08 0.08 0.06 0.04 0.03 0.02 0.02 0.02 0.03 0.03 0.03 0.04 0.05 0.05 0.04 0.04 0.03 0.03 0.03 0.03 0.03 0.02 0.01 0.01 0.01
0.13 0.11 0.08 0.06 0.06 0.06 0.06 0.06 0.05 0.04 0.05 0.07 0.06 0.07 0.08 0.09 0.10 0.08 0.07 0.08 0.08 0.06 0.04 0.03 0.03 0.03 0.03 0.03 0.03 0.04 0.04 0.05 0.05 0.05 0.04 0.04 0.03 0.03 0.02 0.02 0.01 0.01 0.01 0.01
0.13 0.11 0.08 0.06 0.06 0.08 0.11 0.09 0.06 0.06 0.07 0.05 0.05 0.06 0.08 0.08 0.08 0.07 0.05 0.06 0.07 0.06 0.05 0.04 0.04 0.05 0.04 0.03 0.03 0.03 0.03 0.04 0.04 0.02 0.02 0.02 0.02 0.01 0.02 0.02 0.01 0.01 0.01 0.01
MSLP
1012.91 1012.23 1011.67 1011.25 1010.92 1010.66 1010.39 1010.06 1009.63 1009.08 1008.43 1007.74 1007.05 1006.46 1006.04 1005.84 1005.87 1006.13 1006.59 1007.20 1007.91 1008.65 1009.40 1010.14 1010.86 1011.59 1012.34 1013.13 1013.96 1014.82 1015.70 1016.56 1017.36 1018.09 1018.70 1019.21 1019.60 1019.90 1020.13 1020.30 1020.43 1020.53 1020.62 1020.68
1013.60 1012.72 1011.89 1011.12 1010.42 1009.79 1009.21 1008.65 1008.09 1007.53 1006.99 1006.50 1006.08 1005.78 1005.64 1005.67 1005.87 1006.23 1006.72 1007.31 1007.97 1008.67 1009.38 1010.12 1010.88 1011.68 1012.52 1013.41 1014.33 1015.27 1016.20 1017.08 1017.89 1018.59 1019.19 1019.68 1020.07 1020.38 1020.63 1020.84 1021.02 1021.17 1021.29 1021.39
1013.93 1012.90 1011.84 1010.80 1009.82 1008.90 1008.06 1007.31 1006.65 1006.09 1005.63 1005.29 1005.07 1004.99 1005.05 1005.24 1005.56 1005.98 1006.48 1007.05 1007.67 1008.34 1009.06 1009.82 1010.65 1011.55 1012.50 1013.51 1014.55 1015.58 1016.56 1017.48 1018.30 1019.00 1019.59 1020.07 1020.47 1020.80 1021.09 1021.35 1021.58 1021.79 1021.96 1022.09
1013.85 1012.71 1011.51 1010.29 1009.10 1007.99 1006.98 1006.10 1005.37 1004.79 1004.38 1004.14 1004.05 1004.10 1004.28 1004.57 1004.94 1005.38 1005.89 1006.44 1007.06 1007.73 1008.48 1009.32 1010.25 1011.27 1012.36 1013.49 1014.64 1015.76 1016.80 1017.75 1018.58 1019.28 1019.87 1020.35 1020.77 1021.13 1021.46 1021.77 1022.06 1022.33 1022.54 1022.69
1013.40 1012.20 1010.92 1009.61 1008.32 1007.10 1005.99 1005.04 1004.26 1003.67 1003.28 1003.08 1003.05 1003.16 1003.39 1003.71 1004.10 1004.55 1005.06 1005.62 1006.25 1006.98 1007.80 1008.74 1009.78 1010.93 1012.15 1013.41 1014.66 1015.85 1016.94 1017.91 1018.74 1019.44 1020.02 1020.51 1020.94 1021.33 1021.71 1022.07 1022.41 1022.72 1022.97 1023.15
1012.68 1011.46 1010.16 1008.83 1007.51 1006.26 1005.13 1004.15 1003.35 1002.75 1002.36 1002.15 1002.12 1002.23 1002.46 1002.78 1003.18 1003.63 1004.14 1004.74 1005.42 1006.22 1007.14 1008.20 1009.37 1010.65 1011.98 1013.34 1014.65 1015.89 1017.00 1017.98 1018.80 1019.49 1020.06 1020.55 1021.00 1021.42 1021.83 1022.23 1022.62 1022.96 1023.24 1023.43
1011.82 1010.61 1009.33 1008.04 1006.76 1005.54 1004.43 1003.46 1002.66 1002.05 1001.63 1001.39 1001.33 1001.41 1001.61 1001.90 1002.29 1002.75 1003.30 1003.95 1004.71 1005.61 1006.64 1007.81 1009.10 1010.47 1011.89 1013.31 1014.66 1015.91 1017.02 1017.98 1018.78 1019.45 1020.02 1020.51 1020.97 1021.41 1021.85 1022.29 1022.70 1023.07 1023.37 1023.57
1010.96 1009.78 1008.57 1007.34 1006.14 1004.99 1003.93 1002.99 1002.20 1001.57 1001.11 1000.83 1000.71 1000.73 1000.89 1001.16 1001.54 1002.03 1002.63 1003.35 1004.21 1005.20 1006.34 1007.61 1008.99 1010.43 1011.89 1013.33 1014.68 1015.91 1016.99 1017.92 1018.70 1019.36 1019.92 1020.42 1020.90 1021.37 1021.83 1022.29 1022.72 1023.10 1023.40 1023.61
1010.20 1009.07 1007.94 1006.81 1005.70 1004.64 1003.65 1002.74 1001.95 1001.30 1000.80 1000.45 1000.26 1000.23 1000.34 1000.59 1000.98 1001.51 1002.17 1002.97 1003.93 1005.02 1006.25 1007.59 1009.01 1010.48 1011.94 1013.35 1014.67 1015.86 1016.91 1017.81 1018.58 1019.23 1019.80 1020.32 1020.82 1021.32 1021.80 1022.28 1022.72 1023.10 1023.40 1023.60
1009.57 1008.52 1007.48 1006.46 1005.46 1004.49 1003.55 1002.68 1001.89 1001.20 1000.63 1000.22 999.96 999.86 999.94 1000.18 1000.59 1001.17 1001.90 1002.78 1003.82 1004.99 1006.28 1007.65 1009.08 1010.53 1011.96 1013.32 1014.59 1015.73 1016.74 1017.63 1018.39 1019.07 1019.67 1020.23 1020.77 1021.30 1021.81 1022.29 1022.73 1023.11 1023.39 1023.58
1009.05 1008.09 1007.17 1006.27 1005.37 1004.48 1003.60 1002.74 1001.92 1001.18 1000.55 1000.06 999.74 999.59 999.64 999.88 1000.32 1000.94 1001.74 1002.70 1003.80 1005.02 1006.33 1007.70 1009.11 1010.51 1011.87 1013.17 1014.37 1015.47 1016.46 1017.35 1018.14 1018.86 1019.52 1020.15 1020.74 1021.31 1021.85 1022.34 1022.78 1023.14 1023.41 1023.58
1008.53 1007.71 1006.92 1006.14 1005.35 1004.53 1003.68 1002.82 1001.97 1001.17 1000.47 999.90 999.51 999.32 999.34 999.59 1000.06 1000.74 1001.59 1002.61 1003.76 1005.00 1006.30 1007.65 1009.00 1010.32 1011.61 1012.84 1013.98 1015.06 1016.05 1016.96 1017.82 1018.61 1019.35 1020.06 1020.72 1021.34 1021.91 1022.42 1022.84 1023.18 1023.43 1023.58
1007.90 1007.24 1006.61 1005.97 1005.28 1004.52 1003.70 1002.82 1001.93 1001.07 1000.29 999.65 999.20 998.98 998.99 999.26 999.77 1000.49 1001.40 1002.46 1003.63 1004.87 1006.15 1007.44 1008.72 1009.96 1011.17 1012.33 1013.44 1014.50 1015.51 1016.48 1017.41 1018.30 1019.15 1019.95 1020.69 1021.37 1021.97 1022.49 1022.90 1023.22 1023.44 1023.57
1007.06 1006.60 1006.14 1005.64 1005.05 1004.35 1003.55 1002.66 1001.72 1000.80 999.96 999.26 998.77 998.53 998.55 998.85 999.40 1000.17 1001.13 1002.22 1003.40 1004.63 1005.87 1007.10 1008.30 1009.46 1010.59 1011.70 1012.78 1013.84 1014.89 1015.93 1016.96 1017.95 1018.91 1019.80 1020.63 1021.37 1022.00 1022.52 1022.93 1023.22 1023.41 1023.52
1005.95 1005.70 1005.43 1005.08 1004.60 1003.96 1003.18 1002.27 1001.30 1000.34 999.46 998.73 998.22 997.98 998.03 998.37 998.97 999.80 1000.81 1001.93 1003.12 1004.33 1005.53 1006.70 1007.82 1008.91 1009.97 1011.03 1012.09 1013.17 1014.26 1015.37 1016.49 1017.58 1018.64 1019.63 1020.52 1021.31 1021.97 1022.49 1022.89 1023.17 1023.33 1023.42
1004.58 1004.55 1004.47 1004.26 1003.89 1003.31 1002.56 1001.66 1000.68 999.70 998.80 998.07 997.58 997.38 997.48 997.88 998.56 999.45 1000.51 1001.67 1002.87 1004.06 1005.22 1006.33 1007.39 1008.41 1009.42 1010.43 1011.48 1012.57 1013.70 1014.87 1016.05 1017.23 1018.36 1019.42 1020.37 1021.19 1021.87 1022.40 1022.79 1023.05 1023.19 1023.26
1003.03 1003.21 1003.29 1003.22 1002.94 1002.44 1001.73 1000.85 999.89 998.93 998.05 997.36 996.93 996.80 996.98 997.47 998.23 999.20 1000.31 1001.51 1002.73 1003.91 1005.04 1006.10 1007.10 1008.07 1009.02 1010.00 1011.03 1012.11 1013.26 1014.46 1015.70 1016.92 1018.10 1019.20 1020.18 1021.02 1021.70 1022.23 1022.61 1022.86 1023.00 1023.06
1001.42 1001.76 1001.99 1002.03 1001.85 1001.41 1000.75 999.92 999.01 998.10 997.30 996.68 996.35 996.32 996.61 997.20 998.06 999.11 1000.30 1001.54 1002.77 1003.95 1005.06 1006.08 1007.04 1007.95 1008.86 1009.80 1010.79 1011.86 1013.00 1014.21 1015.44 1016.68 1017.87 1018.98 1019.96 1020.80 1021.47 1021.99 1022.36 1022.61 1022.74 1022.80
999.87 1000.33 1000.66 1000.79 1000.68 1000.30 999.71 998.96 998.12 997.31 996.61 996.12 995.91 996.01 996.43 997.14 998.10 999.24 1000.49 1001.77 1003.02 1004.21 1005.30 1006.29 1007.21 1008.08 1008.94 1009.83 1010.78 1011.81 1012.92 1014.09 1015.30 1016.51 1017.67 1018.75 1019.70 1020.52 1021.18 1021.68 1022.04 1022.28 1022.42 1022.50
998.51 999.03 999.42 999.60 999.53 999.22 998.70 998.03 997.31 996.62 996.07 995.72 995.66 995.91 996.46 997.29 998.35 999.57 1000.87 1002.18 1003.45 1004.63 1005.71 1006.68 1007.56 1008.39 1009.21 1010.06 1010.96 1011.94 1012.99 1014.10 1015.24 1016.39 1017.49 1018.51 1019.41 1020.18 1020.81 1021.29 1021.64 1021.89 1022.04 1022.13
997.39 997.92 998.32 998.51 998.48 998.22 997.78 997.23 996.64 996.10 995.70 995.53 995.63 996.02 996.70 997.63 998.77 1000.05 1001.38 1002.72 1003.99 1005.16 1006.22 1007.16 1008.02 1008.82 1009.60 1010.41 1011.26 1012.17 1013.14 1014.18 1015.23 1016.29 1017.30 1018.24 1019.08 1019.79 1020.37 1020.83 1021.18 1021.42 1021.59 1021.70
996.53 997.02 997.39 997.57 997.56 997.36 997.01 996.58 996.14 995.77 995.55 995.54 995.80 996.32 997.11 998.13 999.32 1000.62 1001.96 1003.28 1004.54 1005.69 1006.73 1007.65 1008.49 1009.27 1010.02 1010.79 1011.59 1012.44 1013.34 1014.28 1015.24 1016.20 1017.11 1017.95 1018.70 1019.35 1019.89 1020.31 1020.65 1020.90 1021.09 1021.23
995.89 996.31 996.62 996.79 996.79 996.65 996.40 996.11 995.83 995.64 995.59 995.75 996.15 996.79 997.66 998.72 999.93 1001.22 1002.53 1003.82 1005.04 1006.16 1007.17 1008.07 1008.90 1009.66 1010.40 1011.14 1011.90 1012.69 1013.52 1014.38 1015.24 1016.09 1016.90 1017.64 1018.31 1018.89 1019.37 1019.77 1020.09 1020.34 1020.55 1020.72
995.41 995.75 996.00 996.15 996.18 996.11 995.98 995.84 995.73 995.72 995.85 996.16 996.68 997.40 998.32 999.38 1000.57 1001.81 1003.07 1004.29 1005.45 1006.52 1007.50 1008.39 1009.20 1009.96 1010.69 1011.41 1012.15 1012.90 1013.67 1014.45 1015.22 1015.98 1016.68 1017.34 1017.92 1018.42 1018.86 1019.22 1019.53 1019.80 1020.02 1020.22
995.02 995.28 995.50 995.64 995.72 995.75 995.76 995.77 995.84 996.01 996.30 996.75 997.36 998.14 999.06 1000.10 1001.23 1002.39 1003.56 1004.70 1005.78 1006.80 1007.73 1008.60 1009.40 1010.16 1010.90 1011.62 1012.34 1013.07 1013.79 1014.51 1015.20 1015.87 1016.49 1017.06 1017.56 1018.01 1018.40 1018.74 1019.04 1019.30 1019.54 1019.76
994.68 994.90 995.11 995.28 995.44 995.59 995.74 995.93 996.18 996.52 996.96 997.52 998.20 999.00 999.91 1000.89 1001.93 1002.99 1004.05 1005.08 1006.08 1007.02 1007.91 1008.75 1009.55 1010.32 1011.06 1011.79 1012.51 1013.21 1013.90 1014.57 1015.20 1015.80 1016.34 1016.84 1017.28 1017.67 1018.02 1018.34 1018.63 1018.90 1019.16 1019.40
994.39 994.61 994.85 995.09 995.36 995.64 995.96 996.33 996.75 997.24 997.81 998.46 999.19 1000.00 1000.86 1001.76 1002.70 1003.64 1004.57 1005.49 1006.39 1007.26 1008.10 1008.90 1009.70 1010.46 1011.22 1011.95 1012.67 1013.36 1014.02 1014.65 1015.23 1015.77 1016.25 1016.68 1017.07 1017.43 1017.75 1018.05 1018.34 1018.61 1018.88 1019.14
Thickness
5741 5749 5751 5752 5752 5750 5747 5742 5735 5745 5751 5766 5773 5776 5779 5781 5780 5780 5780 5778 5778 5777 5776 5775 5774 5772 5771 5769 5766 5764 5760 5757 5754 5752 5749 5745 5742 5738 5735 5731 5729 5725 5723 5720
5733 5741 5744 5744 5750 5751 5751 5749 5747 5750 5753 5770 5773 5773 5773 5775 5775 5773 5773 5773 5773 5773 5772 5771 5770 5768 5766 5764 5761 5759 5755 5752 5750 5747 5744 5741 5738 5734 5731 5727 5724 5720 5717 5714
5711 5724 5732 5726 5743 5747 5748 5750 5749 5744 5757 5765 5765 5767 5769 5770 5770 5769 5769 5769 5769 5769 5769 5768 5768 5765 5762 5760 5758 5754 5750 5747 5744 5742 5739 5736 5733 5729 5726 5722 5718 5715 5712 5709
5696 5708 5700 5729 5750 5752 5748 5749 5751 5753 5758 5761 5764 5766 5769 5769 5768 5767 5767 5766 5766 5766 5765 5765 5764 5762 5759 5756 5752 5749 5745 5743 5740 5737 5734 5731 5727 5723 5720 5717 5713 5710 5707 5704
5682 5687 5701 5725 5741 5743 5738 5739 5751 5750 5753 5755 5759 5760 5761 5766 5766 5765 5765 5765 5764 5765 5764 5762 5761 5758 5754 5750 5747 5743 5740 5738 5736 5732 5729 5726 5722 5719 5716 5711 5708 5705 5702 5699
5676 5683 5685 5716 5741 5746 5740 5728 5748 5748 5747 5747 5749 5740 5749 5762 5762 5761 5761 5760 5760 5761 5760 5757 5756 5752 5747 5744 5741 5739 5737 5734 5731 5728 5724 5721 5718 5714 5711 5707 5703 5700 5696 5693
5671 5676 5689 5719 5733 5736 5714 5723 5744 5744 5744 5743 5742 5746 5752 5755 5755 5755 5755 5755 5755 5754 5753 5752 5750 5747 5742 5739 5737 5736 5733 5729 5725 5723 5719 5716 5712 5709 5705 5701 5697 5694 5690 5687
5662 5667 5682 5718 5720 5716 5720 5733 5738 5739 5740 5739 5739 5742 5745 5746 5746 5747 5747 5748 5748 5746 5745 5745 5744 5741 5736 5734 5734 5730 5727 5723 5719 5716 5714 5710 5705 5701 5698 5694 5690 5687 5683 5680
5673 5681 5700 5709 5714 5721 5723 5724 5728 5731 5733 5734 5732 5733 5735 5736 5736 5738 5738 5739 5739 5737 5735 5735 5735 5734 5730 5730 5728 5724 5720 5716 5713 5710 5706 5703 5699 5695 5691 5687 5683 5679 5675 5673
5668 5682 5693 5701 5708 5713 5717 5718 5722 5725 5726 5727 5725 5726 5726 5726 5727 5727 5728 5729 5729 5728 5726 5725 5726 5725 5724 5723 5721 5717 5713 5709 5706 5702 5699 5695 5692 5688 5684 5680 5677 5673 5669 5667
5661 5675 5684 5694 5699 5704 5708 5712 5715 5717 5718 5718 5718 5717 5717 5717 5717 5719 5719 5719 5719 5719 5718 5718 5718 5717 5716 5715 5713 5710 5706 5702 5699 5696 5693 5688 5684 5681 5678 5675 5672 5668 5665 5662
5658 5669 5671 5681 5691 5696 5697 5701 5705 5707 5707 5709 5710 5708 5708 5708 5709 5710 5710 5710 5710 5710 5711 5711 5711 5709 5708 5708 5706 5703 5699 5695 5692 5688 5685 5681 5676 5672 5669 5667 5664 5661 5659 5656
5661 5668 5669 5677 5684 5688 5690 5693 5698 5699 5700 5700 5700 5701 5701 5700 5700 5701 5702 5702 5701 5701 5702 5703 5702 5702 5702 5702 5700 5698 5693 5690 5686 5682 5678 5674 5670 5667 5662 5659 5656 5654 5651 5649
5658 5660 5662 5669 5673 5679 5682 5686 5688 5690 5692 5693 5692 5692 5692 5692 5692 5692 5692 5692 5691 5692 5693 5694 5694 5695 5696 5696 5694 5691 5689 5685 5681 5676 5672 5668 5665 5661 5658 5654 5650 5647 5643 5641
5652 5654 5657 5661 5665 5669 5673 5675 5675 5677 5680 5682 5683 5683 5683 5683 5684 5685 5684 5683 5682 5683 5684 5684 5685 5687 5688 5687 5686 5685 5683 5678 5674 5670 5666 5662 5658 5654 5650 5647 5643 5640 5636 5634
5646 5648 5651 5653 5655 5659 5662 5665 5666 5667 5670 5672 5673 5674 5676 5676 5676 5676 5676 5675 5675 5675 5676 5677 5678 5680 5681 5680 5678 5676 5674 5672 5668 5664 5659 5655 5651 5647 5643 5640 5636 5633 5631 5628
5636 5639 5641 5644 5647 5650 5653 5656 5659 5660 5662 5664 5665 5667 5667 5666 5666 5667 5668 5669 5669 5669 5669 5670 5672 5674 5674 5673 5671 5669 5666 5663 5661 5657 5654 5650 5646 5642 5638 5634 5631 5628 5625 5622
5635 5638 5640 5641 5643 5645 5647 5650 5652 5653 5655 5657 5657 5657 5658 5658 5658 5659 5660 5660 5660 5661 5662 5663 5665 5666 5666 5666 5664 5662 5659 5656 5653 5651 5648 5643 5640 5636 5632 5628 5625 5622 5619 5616
5630 5632 5634 5636 5638 5639 5641 5642 5644 5645 5647 5648 5648 5649 5650 5651 5651 5651 5652 5651 5652 5653 5655 5657 5658 5659 5658 5658 5657 5654 5651 5649 5646 5643 5641 5636 5632 5629 5625 5622 5618 5616 5613 5609
5624 5627 5629 5631 5632 5633 5634 5635 5636 5637 5638 5639 5639 5639 5639 5641 5642 5643 5643 5644 5646 5648 5650 5650 5651 5650 5650 5649 5648 5646 5644 5642 5639 5636 5633 5629 5625 5621 5618 5615 5612 5609 5605 5602
5617 5620 5622 5623 5624 5626 5627 5628 5628 5629 5630 5630 5630 5631 5632 5633 5634 5635 5635 5636 5639 5640 5641 5642 5642 5641 5641 5640 5640 5638 5636 5634 5631 5628 5626 5622 5618 5615 5611 5608 5605 5602 5599 5596
5609 5612 5614 5615 5616 5617 5619 5620 5620 5622 5622 5622 5623 5624 5624 5625 5626 5627 5629 5630 5632 5632 5633 5633 5634 5633 5632 5632 5631 5630 5628 5626 5623 5620 5618 5614 5611 5608 5605 5602 5599 5595 5592 5589
5602 5605 5607 5608 5609 5610 5611 5612 5613 5614 5615 5616 5616 5617 5618 5619 5620 5620 5621 5624 5625 5625 5626 5627 5626 5625 5624 5624 5623 5622 5620 5618 5615 5613 5610 5607 5604 5601 5598 5595 5592 5589 5585 5583
5597 5599 5601 5602 5603 5604 5604 5605 5606 5607 5608 5609 5610 5611 5612 5612 5613 5615 5617 5619 5618 5618 5620 5619 5618 5618 5617 5616 5615 5614 5612 5610 5608 5605 5602 5599 5596 5594 5591 5588 5586 5582 5579 5576
5592 5594 5595 5596 5596 5597 5598 5598 5599 5599 5600 5601 5603 5604 5605 5607 5608 5609 5610 5611 5611 5611 5612 5612 5611 5610 5610 5609 5608 5606 5605 5603 5600 5597 5595 5592 5589 5587 5584 5582 5579 5576 5573 5569
5587 5588 5590 5591 5592 5592 5593 5593 5593 5594 5595 5596 5596 5598 5599 5600 5602 5602 5603 5604 5604 5604 5604 5604 5604 5603 5602 5601 5599 5598 5597 5595 5593 5590 5587 5585 5582 5580 5577 5574 5572 5568 5565 5562
5583 5585 5586 5587 5588 5589 5590 5591 5591 5591 5592 5593 5592 5593 5593 5594 5595 5595 5596 5596 5596 5596 5596 5595 5595 5594 5594 5592 5591 5590 5588 5587 5585 5582 5580 5577 5575 5572 5569 5567 5564 5561 5558 5555